Tracking 17856 objects as of 28-September-2016
HD Live streaming from Space Station
objects crossing your sky now

AMAZONAS 2

Track AMAZONAS 2 now!
AMAZONAS 2 is classified as:


NORAD ID: 35942
Int'l Code: 2009-054A
Perigee: 35,774.7 km
Apogee: 35,818.9 km
Inclination: 0.1 °
Period: 1,436.3 minutes
Semi major axis: 42167 km
RCS: 8.2771 m2 (large)
Launch date: September 30, 2009
Source: Spain (SPN)
Launch site: FRENCH GUIANA (FRGUI)

Amazonas 2 was built by Astrium based on its Eurostar E3000 satellite bus, for on-orbit delivery in 2009. Amazonas 2 will be operated from at 61° West, providing relay services with 54 Ku band and 10 C band transponders.
Your satellite tracking list
Your tracking list is empty





NASA's NSSDC Master Catalog

Two Line Element Set (TLE):
1 35942U 09054A   16271.55158907  .00000000  00000-0  10000-3 0  9992
2 35942   0.0576 130.4656 0005235  42.3327 331.3440  1.00260941 25608
Source of the keplerian elements: AFSPC

N2YO: 444